{"data":{"norad_id":68111,"epoch":"2026-09-19T16:43:38.438688Z","epoch_age_seconds":125459,"freshness":"FRESH","line1":"1 68111U 26044L   26262.69697267  .00020955  00000+0  64919-3 0  9995","line2":"2 68111  97.2834 221.6433 0002319  89.6129 270.5380 15.33463395 31318","mean_motion":15.33463395,"eccentricity":0.0002319,"inclination_deg":97.2834,"raan_deg":221.6433,"arg_perigee_deg":89.6129,"mean_anomaly_deg":270.538,"bstar":0.00064919,"rev_number":3131,"period_min":93.905078184145,"perigee_km":463.90140770666,"apogee_km":467.07548118779,"semimajor_km":6843.6254444472,"source":"CELESTRAK","updated_at":"2026-09-20T09:00:43.787122Z"}}